Regional Weather Roundup
Issued by NWS

Home | Current Version | Previous Version | Graphics & Text | Print | Product List | Glossary On
Versions: 1 2 3 4 5 6 7 8 9 10 11 12 13 14 15 16 17 18 19 20 21 22 23 24 25 26 27 28 29 30 31 32 33 34 35 36 37 38 39 40 41 42 43 44 45 46 47 48 49 50
000
ASUS43 KLMK 271010
RWRKY
KENTUCKY REGIONAL WEATHER ROUNDUP
NATIONAL WEATHER SERVICE LOUISVILLE KY
500 AM EST SAT DEC 27 2014

NOTE "FAIR" INDICATES FEW OR NO CLOUDS BELOW 12,000 FEET
WITH NO SIGNIFICANT WEATHER AND/OR OBSTRUCTIONS TO VISIBILITY.

KYZ001>023-026-027-061>063-070>075-271100-
WESTERN AND SOUTH CENTRAL KENTUCKY

CITY           SKY/WX    TMP DP  RH WIND       PRES   REMARKS
PADUCAH        LGT RAIN  47  45  93 CALM      30.14R FOG
HENDERSON      CLOUDY    46  39  76 S5        30.14S
OWENSBORO      LGT RAIN  47  41  80 S7        30.16S
HOPKINSVILLE   CLOUDY    48  39  70 SE6       30.16F
BOWLING GREEN  CLOUDY    48  37  65 SE5       30.19F
GLASGOW        CLOUDY    47  36  64 CALM      30.19F
$$

KYZ024-025-028>034-038-045-046-053-271100-
NORTH CENTRAL KENTUCKY

CITY           SKY/WX    TMP DP  RH WIND       PRES   REMARKS
LOUISVILLE/SDF CLOUDY    50  36  58 S8        30.17F
LOUISVILLE/LOU CLOUDY    49  36  61 SE6       30.18F
FORT KNOX      CLOUDY    47  37  70 SE7       30.16F
$$

KYZ035>037-039>044-047>052-055>060-089>105-271100-
NORTHEAST KENTUCKY

CITY           SKY/WX    TMP DP  RH WIND       PRES   REMARKS
LEXINGTON      CLOUDY    45  34  65 SE7       30.20F
COVINGTON      PTCLDY    38  30  73 S6        30.18F WCI  33
FRANKFORT      CLOUDY    46  34  62 CALM      30.19F
$$

KYZ054-064>069-076>088-106>120-271100-
SOUTHEAST KENTUCKY

CITY           SKY/WX    TMP DP  RH WIND       PRES   REMARKS
JACKSON        CLOUDY    45  26  47 SE3       30.23F
LONDON         CLOUDY    43  33  68 SE5       30.23F
SOMERSET       MOCLDY    43  32  65 CALM      30.24F
MIDDLESBORO    CLOUDY    42  38  86 CALM      30.26F
MONTICELLO     PTSUNNY   43  39  85 CALM      30.24F
$$



USA.gov is the U.S. government's official web portal to all federal, state and local government web resources and services.